Flag Weather past 2 weeks in Red Deer, Alberta, Canada

Now
0 °F

Snow flurries. Overcast.


Feels Like: -19 °F
Forecast: -9 / 5 °F
Wind: 14 mph from North

Location: Red Deer

Current Time: Nov 28, 2014 at 2:44:03 AM

Latest Report: Nov 28, 2014 at 2:00 AM


Visibility: 2 mi

Pressure: 29.92 "Hg

Humidity: 84%

Dew point: -4 °F

Location of Red DeerLocation

Historic Weather in Red Deer — Graph

°F

Red Deer temperature yesterday

Maximum temperature yesterday: 25 °F (at 12:00 AM)
Minimum temperature yesterday: 1 °F (at 10:00 PM)
Average temperature yesterday: 15 °F

Past Weeks' High & Low Weather Summary

 TemperatureHumidityPressure
High39 °F (Nov 21, 3:00 PM)100% (Nov 18, 7:00 PM)30.67 "Hg (Nov 18, 7:00 PM)
Low-17 °F (Nov 13, 11:00 PM)55% (Nov 15, 8:00 PM)29.12 "Hg (Nov 22, 6:00 AM)
Average19 °F82%30.11 "Hg
* Reported Nov 13 1:00 AM — Nov 28 1:00 AM, Red Deer, Weather by CustomWeather, © 2014

Note: Actual official high and low records may vary slightly from our data, if they occured in-between our weather recording intervals... More about our weather records

Advertising

Red Deer weather history for previous 24 hours

 ConditionsComfort  
Time TempWeatherWind HumidityBarometerVisibility
1:00 AM
Nov 28
0 °FSnow flurries. Overcast.13 mph84%29.93 "Hg2 mi
12:00 AM1 °FLight snow. Overcast.9 mph85%29.95 "Hg3 mi
11:00 PM
Nov 27
1 °FLight snow. Overcast.10 mph85%29.94 "Hg3 mi
10:00 PM1 °FLight snow. Overcast.12 mph85%29.95 "Hg3 mi
9:00 PM3 °FLight snow. Overcast.12 mph78%29.96 "Hg1 mi
8:00 PM5 °FLight snow. Overcast.12 mph85%29.96 "Hg1 mi
7:00 PM5 °FLight snow. Overcast.13 mph92%29.99 "Hg1 mi
6:00 PM7 °FLight snow. Overcast.14 mph85%30.01 "Hg1 mi
5:00 PM9 °FLight snow. Overcast.16 mph85%30.02 "Hg1 mi
4:00 PM9 °FLight mixture of precip. Overcast.12 mph92%30.01 "Hg3 mi
3:00 PM10 °FLight mixture of precip. Overcast.16 mph85%30.01 "Hg3 mi
2:00 PM12 °FLight mixture of precip. Overcast.14 mph85%30.01 "Hg2 mi
1:00 PM14 °FLight mixture of precip. Overcast.14 mph85%30.00 "Hg3 mi
12:00 PM16 °FLight snow. Overcast.17 mph86%29.99 "Hg2 mi
11:00 AM18 °FLight snow. Overcast.14 mph86%30.00 "Hg2 mi
10:02 AM19 °FLight snow. Overcast.12 mph86%29.98 "Hg10 mi
9:00 AM19 °FLight snow. Overcast.14 mph93%29.97 "Hg2 mi
8:00 AM21 °FLight snow. Overcast.13 mph93%29.97 "Hg2 mi
7:00 AM21 °FLight snow. Ice fog.12 mph93%29.97 "Hg1 mi
6:00 AM23 °FLight snow. Ice fog.9 mph93%29.96 "Hg2 mi
5:00 AM23 °FLight snow. Ice fog.12 mph93%29.97 "Hg2 mi
4:00 AM25 °FLight snow. Ice fog.9 mph93%30.00 "Hg2 mi
3:00 AM25 °FLight snow. Ice fog.8 mph93%30.04 "Hg2 mi
2:00 AM25 °FLight snow. Ice fog.9 mph93%30.07 "Hg2 mi
Weather by CustomWeather, © 2014

See weather overviewHow to use our weather pages